Theta_e
324 326 332 332 331 333 333 333 333 335 349 350 351 351 348 342 341 341 341 341 342 342 342 342 344 342 343 345 344 346 346 345 346 345 347 348 348 346 346 345 343 342 343 346
319 323 323 325 324 327 329 329 328 328 331 349 350 350 351 344 341 340 341 340 341 342 342 342 343 343 344 344 346 347 345 345 345 344 347 348 349 349 343 343 346 344 344 343
316 320 318 318 318 319 319 324 327 329 329 349 348 351 354 348 342 340 339 340 340 341 342 342 343 343 343 344 344 345 345 340 343 345 347 349 349 349 349 340 341 342 342 341
313 314 317 315 316 317 316 319 319 319 329 343 347 352 350 352 345 340 339 339 340 339 341 342 343 343 343 343 343 343 344 340 341 347 349 350 351 349 348 339 340 341 342 343
313 316 315 315 316 317 315 316 316 316 317 338 339 341 339 350 353 341 340 339 339 340 340 341 343 343 343 343 343 343 344 343 341 346 347 349 350 349 345 349 343 342 346 348
313 314 315 315 315 315 315 315 314 318 324 334 333 339 338 348 353 350 340 340 338 340 340 341 341 341 342 343 343 343 343 343 343 341 347 348 349 350 350 349 350 347 340 347
315 316 316 318 317 316 314 311 312 315 324 333 332 337 340 335 339 346 348 341 339 339 340 340 341 342 343 343 343 343 343 343 344 344 346 348 348 350 350 350 350 350 347 345
317 317 318 318 319 319 315 311 311 317 320 317 317 323 335 333 335 342 348 346 342 339 340 340 340 341 342 341 342 343 342 342 344 345 344 346 348 349 350 350 350 351 348 346
317 318 318 318 319 318 318 313 312 312 311 315 315 318 323 327 332 339 347 349 344 340 341 339 340 341 341 341 341 341 341 341 342 342 345 346 348 349 350 350 349 350 349 347
317 316 315 317 317 317 318 316 313 309 317 316 316 321 323 326 328 333 338 349 346 344 341 340 338 340 341 340 340 340 340 340 342 341 342 345 348 349 349 350 351 351 350 349
315 313 315 315 315 315 314 315 314 311 311 314 314 315 321 323 326 329 342 347 348 346 343 342 340 339 340 340 340 340 340 340 343 344 341 342 347 349 350 349 351 352 348 348
314 309 313 315 313 312 314 317 314 316 318 316 315 318 321 335 345 341 346 349 349 348 345 342 342 340 340 341 341 341 341 340 343 345 343 341 345 349 351 351 350 350 348 349
314 311 311 312 311 313 317 317 317 313 311 315 316 317 320 324 347 349 349 350 350 349 348 345 344 342 341 342 343 342 342 341 343 345 345 342 341 344 348 350 349 349 349 349
314 308 311 313 314 313 317 317 317 316 317 318 317 320 318 319 346 347 348 349 350 350 349 348 345 344 343 343 344 344 343 343 344 345 347 344 341 339 343 346 348 347 350 352
308 310 312 311 312 314 315 316 317 316 318 324 325 329 333 330 337 347 349 349 349 347 350 349 346 345 345 345 345 346 347 346 345 346 347 348 345 341 337 340 348 345 346 354
306 309 310 311 311 314 313 313 315 316 328 332 334 335 334 335 339 341 344 346 345 345 345 349 348 346 345 345 346 346 347 348 348 346 347 348 348 347 343 337 340 343 345 347
309 309 307 310 310 311 313 311 322 326 331 333 334 334 335 338 333 335 338 341 344 346 347 348 348 350 350 346 345 345 347 348 350 349 347 348 348 348 347 345 341 338 338 339
308 306 306 311 311 314 312 313 313 325 330 331 333 334 337 335 335 334 335 338 338 339 339 338 342 344 345 345 345 345 345 347 348 350 350 349 349 349 348 346 346 346 345 341
308 307 311 313 310 312 314 313 322 327 326 330 333 334 335 337 334 335 335 336 336 337 340 341 343 343 345 346 351 349 345 345 347 351 351 351 351 350 350 348 347 347 348 347
309 307 311 307 311 313 312 324 323 323 326 329 330 332 333 333 334 334 335 336 336 336 337 340 338 339 338 342 349 352 350 348 347 350 352 352 350 349 349 347 348 348 348 348
311 310 313 312 313 311 316 320 322 325 323 329 326 325 330 334 334 335 334 334 335 337 337 337 339 339 336 334 336 344 346 347 346 345 347 348 347 347 347 343 345 339 339 339
312 313 311 312 315 314 320 319 324 322 324 328 322 322 322 327 334 335 333 333 333 334 335 336 337 337 338 338 334 340 343 343 332 327 340 337 333 340 338 336 343 339 336 336
314 313 314 314 314 315 319 320 319 321 322 324 326 320 323 324 330 334 333 333 332 331 331 331 333 335 335 336 338 340 342 342 342 343 344 339 342 344 344 346 345 339 340 343
314 314 316 314 313 314 317 316 315 317 322 323 325 325 327 320 327 331 332 330 330 330 329 326 324 328 332 331 333 337 340 341 341 341 341 344 344 344 344 343 344 344 345 345
316 315 315 314 313 314 314 315 317 319 322 323 325 327 323 322 323 329 330 330 328 327 326 325 326 323 324 331 331 329 328 328 331 337 338 339 342 343 344 342 341 341 342 343
316 317 317 315 313 312 314 317 319 320 321 324 325 326 328 326 324 322 327 325 327 328 328 327 327 326 324 322 324 324 323 326 330 331 337 339 337 334 333 332 331 331 330 329
Wind_Speed
4 5 2 4 3 4 5 3 7 9 9 8 17 5 15 27 23 25 28 29 32 32 39 36 37 34 34 30 28 23 23 24 25 23 23 21 19 19 19 20 20 26 22 17
6 1 4 4 3 3 5 7 6 9 9 7 5 14 14 25 29 33 34 30 34 36 37 41 41 40 36 32 29 26 22 27 28 25 23 19 17 15 14 20 24 24 23 20
4 5 6 4 6 6 4 6 5 7 10 9 1 3 13 18 21 29 30 37 37 40 41 43 47 44 39 36 32 28 22 24 27 29 25 21 19 17 17 19 23 27 24 22
3 4 3 5 2 2 4 1 7 7 7 4 5 6 5 13 16 21 30 32 38 39 45 48 49 48 45 39 34 31 26 25 28 31 27 25 23 23 21 20 24 26 24 22
7 3 3 2 4 3 8 3 5 6 6 2 5 0 7 12 11 16 28 35 38 43 47 53 53 50 47 42 39 34 31 28 31 34 31 30 26 23 21 23 23 27 26 23
4 4 1 1 4 3 9 5 3 1 3 1 7 6 6 6 11 21 31 40 42 45 46 52 54 50 48 45 43 38 35 31 31 34 35 33 28 25 23 25 26 23 28 27
7 5 7 7 8 8 10 6 5 5 3 6 2 3 14 7 12 18 24 41 44 43 46 47 53 55 52 50 47 43 39 35 34 36 37 36 32 27 26 24 24 25 26 26
3 7 7 6 2 5 5 5 5 4 3 6 9 6 6 10 25 23 30 43 45 42 45 49 55 59 56 52 49 47 42 37 35 38 39 38 35 32 28 25 23 23 23 25
3 5 6 3 5 2 5 1 5 4 3 1 5 9 9 11 12 14 23 31 40 43 46 51 55 59 58 55 52 49 45 40 36 41 40 39 38 35 31 28 28 28 26 23
2 4 3 7 5 3 4 3 5 4 3 5 5 6 6 10 16 10 11 25 39 42 45 48 50 58 59 57 52 50 47 43 38 39 43 44 42 37 35 31 29 28 27 29
1 3 6 4 4 9 6 4 3 3 3 3 5 5 7 9 16 15 11 27 36 38 44 47 51 56 60 58 55 52 50 46 41 39 41 46 46 41 36 34 32 31 26 28
2 4 1 6 7 7 5 2 3 4 7 3 4 6 11 7 9 13 11 19 26 31 34 34 37 42 52 55 56 55 51 48 44 39 43 44 48 44 39 36 36 34 28 28
3 2 4 9 7 6 3 2 2 3 1 6 3 6 15 14 11 5 11 12 30 35 33 31 32 38 42 52 55 56 53 49 46 42 40 44 48 47 45 42 39 36 32 31
3 2 6 5 7 3 6 7 4 1 2 6 6 15 16 18 8 2 6 4 7 23 32 34 32 40 43 46 51 54 54 51 47 45 41 41 44 48 46 44 41 40 35 35
4 3 4 7 8 7 11 8 7 7 10 6 12 13 21 21 13 9 21 15 9 9 18 25 32 38 39 42 45 47 49 50 49 46 45 42 39 42 43 45 42 42 40 38
1 3 1 6 6 5 7 10 13 15 9 4 10 15 8 40 18 13 10 21 24 13 7 16 23 24 26 29 38 44 46 47 47 45 45 44 40 37 38 41 42 41 43 43
4 5 3 5 4 9 8 7 8 4 4 2 4 10 19 13 13 15 15 7 15 17 14 9 12 16 10 24 33 36 40 42 43 45 42 43 42 41 38 36 37 39 41 42
5 4 3 4 1 5 7 6 7 8 4 5 5 12 16 4 11 18 16 10 10 12 10 5 4 14 12 22 31 38 35 33 35 41 41 39 41 42 39 38 36 34 36 39
2 4 1 2 4 7 9 7 4 3 7 5 3 13 22 16 12 13 12 13 12 13 14 12 14 14 10 18 14 22 35 36 27 31 32 35 37 36 35 34 34 33 31 29
4 4 3 1 3 5 6 0 9 4 8 5 6 14 14 12 3 2 11 14 15 18 17 16 6 8 6 10 9 17 18 22 27 29 28 26 27 24 27 26 29 28 22 27
4 4 4 4 5 8 4 15 8 4 6 7 3 5 18 3 1 7 11 15 17 19 18 17 18 15 8 7 9 6 18 19 13 9 13 11 13 22 17 17 21 22 26 19
3 2 3 1 3 7 9 11 2 4 9 6 7 5 5 21 1 13 18 18 19 20 20 20 22 19 14 11 13 10 6 5 24 10 28 18 9 24 18 19 24 15 9 20
3 6 3 7 5 6 8 12 19 17 18 17 10 12 16 12 11 6 19 21 21 23 24 22 22 22 22 20 14 12 12 16 14 20 8 15 26 24 20 21 19 14 18 21
4 3 3 2 6 12 13 19 23 21 20 18 11 15 14 9 3 11 24 24 20 21 23 21 22 22 22 22 23 16 15 12 9 10 10 11 10 10 9 7 7 9 12 14
6 4 4 6 12 22 18 16 14 17 17 16 9 10 15 9 17 9 23 22 20 22 21 21 22 22 20 18 19 20 20 17 14 10 10 9 10 11 12 12 9 8 8 8
6 4 3 4 7 7 14 14 15 18 17 9 7 9 12 13 17 15 14 21 22 21 17 17 16 15 19 18 16 15 15 13 12 17 16 13 14 14 14 13 13 12 11 9
Wind_Direction
21 61 258 268 190 278 278 267 279 277 250 175 212 202 184 186 198 199 201 201 204 209 207 205 203 201 202 202 201 199 195 190 188 192 181 184 188 186 184 176 175 181 183 186
21 297 247 283 349 337 299 263 272 279 290 176 205 220 195 185 201 201 200 203 207 209 205 203 202 200 202 203 203 200 205 200 197 202 193 189 188 189 184 188 192 194 192 192
140 250 320 10 346 353 326 297 315 286 307 211 121 253 175 207 205 204 211 208 208 209 205 199 202 204 204 204 204 205 208 204 202 197 194 195 190 199 198 190 191 192 191 188
218 310 28 7 325 214 316 357 321 328 350 288 184 257 221 191 204 200 209 212 210 211 208 203 203 203 205 209 209 209 208 205 199 196 198 201 211 209 198 189 190 192 193 196
252 261 294 342 244 171 241 230 279 279 260 260 278 236 264 164 205 209 212 214 210 213 206 204 206 208 208 210 209 210 210 209 204 202 209 205 209 211 205 200 200 204 204 205
266 277 220 275 308 245 269 329 331 340 118 232 232 189 246 184 202 211 216 214 209 210 209 207 209 210 210 211 211 212 213 212 208 207 207 209 211 212 215 211 210 212 212 213
338 344 344 36 16 354 31 50 351 334 359 226 326 303 241 244 227 217 211 211 210 205 206 204 206 207 210 210 212 213 214 214 212 206 208 211 213 212 217 214 212 212 212 218
50 335 19 6 102 262 293 145 149 259 240 281 316 243 253 238 252 235 223 211 208 202 205 203 208 210 212 212 213 214 216 216 215 208 209 213 214 214 215 223 223 223 219 220
40 287 313 288 270 189 302 40 206 206 253 5 227 277 292 245 255 240 223 210 208 203 202 203 207 212 214 214 214 215 217 217 217 212 211 213 215 217 220 222 230 236 231 227
248 293 271 299 338 351 71 259 5 3 273 269 277 257 243 309 299 275 244 211 209 203 201 203 202 211 214 217 217 217 219 219 218 215 215 214 216 219 222 224 228 226 235 237
114 133 291 23 5 288 341 1 11 139 150 242 308 260 225 271 277 263 244 209 207 202 201 201 203 210 216 218 218 219 218 218 219 219 217 216 217 219 223 227 228 230 234 232
2 134 271 256 271 287 165 157 105 107 292 257 214 266 260 302 295 338 255 200 205 204 204 209 206 202 206 212 217 220 220 219 221 221 218 220 219 220 224 227 229 232 238 230
332 356 356 346 347 360 56 294 339 243 94 228 234 269 315 320 325 55 357 335 198 203 202 205 198 204 207 212 218 221 222 222 221 221 221 220 222 223 224 228 230 232 236 230
82 125 156 189 236 273 296 305 307 223 274 276 235 279 301 297 273 257 110 48 112 178 186 197 201 205 209 214 217 222 224 224 222 222 222 224 225 225 226 229 229 232 232 235
109 243 215 214 246 253 264 291 310 295 267 212 294 304 291 305 276 229 154 136 115 99 155 177 190 197 204 213 218 221 226 226 224 224 223 225 228 229 230 232 231 232 232 235
13 243 268 287 279 273 293 289 283 274 294 319 312 297 326 326 328 350 344 140 132 119 135 171 182 199 205 210 223 224 228 230 229 227 229 228 229 231 234 235 236 237 236 235
179 168 120 262 304 329 307 231 231 237 121 253 314 318 318 321 346 19 13 54 104 131 126 153 203 208 203 214 221 222 231 232 233 234 233 232 232 234 237 240 239 241 241 241
169 138 151 261 24 257 248 271 295 275 156 183 250 16 336 310 10 30 50 61 49 102 115 99 163 205 200 251 225 227 224 230 237 238 237 235 235 237 240 244 245 246 248 248
139 125 256 193 204 275 290 293 329 91 246 271 271 38 338 284 300 20 41 61 67 69 73 112 112 97 173 215 246 245 230 227 225 232 229 240 238 240 242 246 251 256 261 263
79 85 142 148 244 244 244 320 328 202 258 249 280 54 319 297 204 284 53 68 66 74 73 84 122 181 137 89 138 173 198 208 208 212 216 223 231 243 252 250 250 251 262 270
316 312 218 242 242 279 307 312 298 5 262 307 281 49 349 328 33 109 91 79 76 77 81 69 75 89 104 72 121 47 130 144 133 131 196 202 243 241 228 251 275 270 290 294
213 222 244 263 248 275 346 342 271 313 282 283 280 285 279 330 61 123 104 97 93 88 87 82 80 75 60 45 62 358 283 346 306 358 252 207 268 243 232 264 261 258 313 282
270 197 215 193 231 258 280 270 298 292 287 280 280 234 219 223 323 148 115 104 101 95 87 83 86 87 83 83 93 103 115 167 184 195 191 193 217 232 235 237 239 258 252 252
274 191 238 323 257 257 282 281 292 294 279 283 254 230 191 125 150 127 115 113 106 92 86 82 82 85 87 86 85 100 116 116 113 105 117 132 151 145 164 161 160 184 213 243
242 160 278 259 283 283 289 297 289 304 276 276 228 207 186 147 93 70 121 113 113 103 98 93 87 82 88 96 94 89 93 101 104 123 128 128 117 121 137 146 145 176 187 203
195 200 216 259 278 279 305 319 312 298 287 279 252 200 159 150 133 140 101 114 114 105 104 106 108 105 92 89 87 88 86 89 95 92 102 124 116 116 111 111 116 121 120 121